Miscellaneous Local Product
Issued by NWS Hastings, NE

Home | Current Version | Previous Version | Text Only | Print | Product List | Glossary Off
Versions: 1 2 3 4 5 6 7 8 9 10 11 12 13 14 15 16 17 18 19 20 21 22 23 24 25 26 27 28 29 30 31 32 33 34 35 36 37 38 39 40 41 42 43 44 45 46 47 48 49 50

000
AXUS43 KGID 302002
MISGRI

GID CWA HOURLY WEATHER ROUNDUP
NATIONAL WEATHER SERVICE HASTINGS NE
300 PM CDT TUE AUG 30 2016

NOTE: "FAIR" INDICATES FEW OR NO CLOUDS BELOW 12,000 FEET WITH NO
SIGNIFICANT WEATHER AND/OR OBSTRUCTIONS TO VISIBILITY.

...SOUTH CENTRAL NEBRASKA...

CITY           SKY/WX    TMP DP  RH WIND       PRES   REMARKS
GRAND ISLAND   LGT RAIN  71  69  93 E6        30.21F
HASTINGS       PTSUNNY   79  65  62 N6        30.21F
KEARNEY        CLOUDY    79  66  65 E14       30.21F
ORD            CLOUDY    79  63  57 VRB3      30.20F
YORK           CLOUDY    75  70  83 CALM      30.18F
AURORA         CLOUDY    73  71  94 E5        30.20F
LEXINGTON      LGT RAIN  72  65  81 CALM      30.23F
HOLDREGE       CLOUDY    75  65  69 NE3       30.21F
HEBRON         CLOUDY    76  70  81 CALM      30.17F

...NEBRASKA PANHANDLE...

CITY           SKY/WX    TMP DP  RH WIND       PRES   REMARKS
CHADRON        SUNNY     88  50  27 E10       30.20F
ALLIANCE       SUNNY     81  57  43 CALM      30.24F
SCOTTSBLUFF    SUNNY     83  56  39 SE8       30.25F
SIDNEY         MOSUNNY   79  55  43 E10       30.28F

...WESTERN AND NORTH CENTRAL NEBRASKA...

CITY           SKY/WX    TMP DP  RH WIND       PRES   REMARKS
VALENTINE      MOSUNNY   87  59  38 SE8       30.20F
AINSWORTH      SUNNY     85  64  49 E7        30.21F
ONEILL         MOSUNNY   83  62  48 SE9       30.21F
BROKEN BOW     CLOUDY    74  67  78 N7        30.23S
IMPERIAL       CLOUDY    75  63  66 SE8       30.24F
NORTH PLATTE   CLOUDY    79  64  60 SE8       30.22F
MCCOOK         CLOUDY    76  65  68 E5        30.22F

...EASTERN NEBRASKA...

CITY           SKY/WX    TMP DP  RH WIND       PRES   REMARKS
NORFOLK        CLOUDY    77  66  68 S5        30.19F
SO SIOUX CITY  CLOUDY    81  68  64 W3        30.17F
TEKAMAH        MOSUNNY   77  68  73 CALM      30.17F
COLUMBUS       CLOUDY    75  63  64 CALM      30.19F
ALBION         CLOUDY    76  69  77 S5        30.20F
OMAHA EPPLEY   CLOUDY    80  68  66 CALM      30.16F
MILLARD        CLOUDY   N/A N/A N/A CALM      30.16F
LINCOLN        CLOUDY    80  69  69 VRB3      30.16F
NEBRASKA CITY  CLOUDY    77  69  75 N3        30.15F
BEATRICE       PTSUNNY   78  69  74 NE3       30.15F
FALLS CITY     MOSUNNY   81  71  71 VRB3      30.13F

...NORTHERN KANSAS...

CITY           SKY/WX    TMP DP  RH WIND       PRES   REMARKS
GOODLAND       CLOUDY    77  59  53 S8        30.24F
HILL CITY      PTSUNNY   78  66  66 E5        30.20F
NORTON         CLOUDY    75  63  64 CALM      30.21F
SMITH CENTER   MOSUNNY   79  66  65 CALM      30.18F
BELOIT         MOSUNNY   73  68  83 NW5       30.15F
HAYS           PTSUNNY   77  63  61 CALM      30.18F
RUSSELL        CLOUDY    81  70  69 VRB6      30.16F
CONCORDIA      LGT RAIN  79  72  79 NE9       30.15F
SALINA         CLOUDY    86  73  65 N8        30.12F HX  93
TOPEKA         CLOUDY    84  72  67 N5        30.11F



USA.gov is the U.S. government's official web portal to all federal, state and local government web resources and services.